Weather History for MMLO - January, 2013

Change the Weather History Date:

Tuesday, January 29, 2013

  Actual Average Record
Temperature  
Mean Temperature 63 °F -  
Max Temperature 78 °F 74 °F 84 °F (2009)
Min Temperature 48 °F 44 °F 41 °F (1998)
Degree Days  
Heating Degree Days 2    
Growing Degree Days 13 (Base 50)    
Moisture  
Dew Point 38 °F    
Average Humidity 45    
Maximum Humidity 87    
Minimum Humidity 18    
Precipitation  
Precipitation 0.00 in - - ()
Sea Level Pressure  
Sea Level Pressure 30.13 in    
Wind  
Wind Speed 4 mph ()    
Max Wind Speed 18 mph    
Max Gust Speed 29 mph    
Visibility 8.5 miles    
Events      
Averages and records for this station are not official NWS values.
T = Trace of Precipitation, MM = Missing Value Source: Averaged Metar Reports

Daily Weather History Graph

Daily Weather History Graph

Search for Another Location

Airport or City:

Trip Planner

Search our weather history database for the weather conditions in past years. The results will help you decide how hot, cold, wet, or windy it might be!

Date:

Astronomy

Jan. 29, 2013 Rise Set
Actual Time 7:23 AM CST 6:34 PM CST
Civil Twilight 7:00 AM CST 6:58 PM CST
Nautical Twilight 6:33 AM CST 7:24 PM CST
Astronomical Twilight 6:07 AM CST 7:51 PM CST
Moon 9:02 PM CST (1/29) 8:47 AM CST (1/29)
Length of Visible Light 11h 57m
Length of Day
11h 11m
Waning Gibbous, 93% of the Moon is Illuminated
Jan 29
Waning Gibbous
Feb 3
Last Quarter
Feb 10
New
Feb 17
First Quarter
Feb 25
Full

Hourly Weather History & Observations

Time (CST) Temp. Dew Point Humidity Pressure Visibility Wind Dir Wind Speed Gust Speed Precip Events Conditions
12:41 AM 60.8 °F 42.8 °F 52% 30.27 in 8.0 mi Calm Calm - N/A   Mostly Cloudy
2:49 AM 55.4 °F 42.8 °F 63% 29.92 in 8.0 mi Calm Calm - N/A   Mostly Cloudy
3:43 AM 55.4 °F 42.8 °F 63% 30.27 in 8.0 mi Calm Calm - N/A   Mostly Cloudy
4:44 AM 55.4 °F 44.6 °F 67% 30.27 in 8.0 mi West 4.6 mph - N/A   Mostly Cloudy
5:40 AM 53.6 °F 44.6 °F 72% 29.97 in 8.0 mi Calm Calm - N/A   Mostly Cloudy
6:42 AM 51.8 °F 44.6 °F 76% 30.30 in 8.0 mi Calm Calm - N/A   Mostly Cloudy
7:43 AM 48.2 °F 44.6 °F 87% 30.30 in 9.0 mi Calm Calm - N/A   Scattered Clouds
8:43 AM 55.4 °F 44.6 °F 67% 30.04 in 8.0 mi Calm Calm - N/A   Scattered Clouds
9:43 AM 64.4 °F 44.6 °F 49% 30.32 in 8.0 mi West 6.9 mph - N/A   Scattered Clouds
10:54 AM 69.8 °F 42.8 °F 38% 30.32 in 8.0 mi SW 8.1 mph - N/A   Partly Cloudy
11:49 AM 71.6 °F 39.2 °F 31% 29.98 in 8.0 mi Calm Calm - N/A   Clear
12:48 PM 73.4 °F 37.4 °F 27% 30.24 in 9.0 mi WSW 13.8 mph - N/A   Clear
1:44 PM 78.8 °F 32.0 °F 18% 30.21 in 9.0 mi SW 18.4 mph - N/A   Clear
2:41 PM 78.8 °F 32.0 °F 18% 29.79 in 10.0 mi WSW 11.5 mph 25.3 mph N/A   Clear
3:44 PM 78.8 °F 32.0 °F 18% 30.18 in 10.0 mi WSW 11.5 mph 25.3 mph N/A   Clear
4:42 PM 77.0 °F 33.8 °F 21% 30.15 in 10.0 mi WSW 15.0 mph 28.8 mph N/A   Clear
5:45 PM 73.4 °F 33.8 °F 23% 29.80 in 10.0 mi WSW 18.4 mph - N/A   Clear
6:41 PM 68.0 °F 35.6 °F 30% 30.18 in 8.0 mi West 10.4 mph - N/A   Partly Cloudy
7:48 PM 64.4 °F 35.6 °F 34% 30.21 in 8.0 mi West 9.2 mph - N/A   Partly Cloudy
8:42 PM 60.8 °F 33.8 °F 36% 29.91 in 8.0 mi West 8.1 mph - N/A   Partly Cloudy
9:42 PM 57.2 °F 33.8 °F 41% 30.19 in 8.0 mi West 5.8 mph - N/A   Clear
10:45 PM 51.8 °F 33.8 °F 50% 30.18 in 8.0 mi Calm Calm - N/A   Clear
11:46 PM 53.6 °F 33.8 °F 47% 29.91 in 8.0 mi West 5.8 mph - N/A   Clear